Weather History for Pasco, WA

Change the Weather History Date:

Monday, November 19, 2012

  Actual Average Record
Temperature  
Mean Temperature 59 °F 40 °F  
Max Temperature 66 °F 48 °F 66 °F (2012)
Min Temperature 51 °F 32 °F 18 °F (2000)
Degree Days  
Heating Degree Days 6 25  
Month to date heating degree days 372 413  
Since 1 July heating degree days 816 931  
Cooling Degree Days 0 0  
Month to date cooling degree days 0 0  
Year to date cooling degree days 788 710  
Growing Degree Days 8 (Base 50)    
Moisture  
Dew Point 40 °F    
Average Humidity 62    
Maximum Humidity 89    
Minimum Humidity 34    
Precipitation  
Precipitation 0.12 in - 1.33 in (1996)
Month to date precipitation 0.50  
Year to date precipitation 7.96  
Snow  
Snow 0.00 in - - ()
Snow Depth 0.00 in    
Sea Level Pressure  
Sea Level Pressure 29.70 in    
Wind  
Wind Speed 16 mph (South)    
Max Wind Speed 33 mph    
Max Gust Speed 44 mph    
Visibility 10 miles    
Events Rain    
T = Trace of Precipitation, MM = Missing Value Source: NWS Daily Summary

Daily Weather History Graph

Daily Weather History Graph

Search for Another Location

Airport:

Trip Planner

Search our weather history database for the weather conditions in past years. The results will help you decide how hot, cold, wet, or windy it might be!

Date:

Astronomy

Nov. 19, 2012 Rise Set
Actual Time 7:04 AM PST 4:19 PM PST
Civil Twilight 6:31 AM PST 4:52 PM PST
Nautical Twilight 5:54 AM PST 5:29 PM PST
Astronomical Twilight 5:18 AM PST 6:04 PM PST
Moon 12:01 PM PST (11/19) 11:01 PM PST (11/19)
Length of Visible Light 10h 21m
Length of Day
9h 15m
Waxing Crescent, 42% of the Moon is Illuminated
Nov 19
Waxing Crescent
Nov 20
First Quarter
Nov 28
Full
Dec 6
Last Quarter
Dec 13
New

Hourly Weather History & Observations

Time (PST) Temp. Dew Point Humidity Pressure Visibility Wind Dir Wind Speed Gust Speed Precip Events Conditions
12:53 AM 54.0 °F 37.0 °F 53% 29.78 in 10.0 mi SSE 12.7 mph - N/A   Overcast
1:53 AM 55.0 °F 37.0 °F 51% 29.78 in 10.0 mi SSE 12.7 mph - N/A   Overcast
2:53 AM 54.0 °F 37.0 °F 53% 29.77 in 10.0 mi SSE 13.8 mph - N/A   Overcast
3:53 AM 54.0 °F 37.0 °F 53% 29.75 in 10.0 mi SE 10.4 mph - N/A   Overcast
4:53 AM 55.0 °F 37.0 °F 51% 29.74 in 10.0 mi SSE 13.8 mph - N/A   Overcast
5:53 AM 57.0 °F 36.0 °F 45% 29.73 in 10.0 mi SSE 16.1 mph - N/A   Mostly Cloudy
6:53 AM 57.9 °F 35.1 °F 42% 29.70 in 10.0 mi South 23.0 mph 33.4 mph N/A   Partly Cloudy
7:53 AM 59.0 °F 35.1 °F 41% 29.73 in 10.0 mi South 19.6 mph 32.2 mph N/A   Partly Cloudy
8:53 AM 60.1 °F 35.1 °F 39% 29.72 in 10.0 mi South 21.9 mph 27.6 mph N/A   Mostly Cloudy
9:53 AM 61.0 °F 36.0 °F 39% 29.72 in 10.0 mi South 26.5 mph 38.0 mph N/A   Overcast
10:53 AM 63.0 °F 36.0 °F 37% 29.70 in 10.0 mi SSE 26.5 mph 35.7 mph N/A   Overcast
11:53 AM 63.0 °F 36.0 °F 37% 29.65 in 10.0 mi SSE 31.1 mph 43.7 mph N/A   Scattered Clouds
12:53 PM 64.0 °F 36.0 °F 35% 29.63 in 10.0 mi SSE 21.9 mph 34.5 mph N/A   Overcast
1:53 PM 64.0 °F 37.0 °F 37% 29.62 in 10.0 mi SSE 25.3 mph 33.4 mph N/A   Mostly Cloudy
2:53 PM 64.9 °F 37.0 °F 36% 29.60 in 10.0 mi SSE 25.3 mph 34.5 mph N/A   Overcast
3:53 PM 64.9 °F 37.9 °F 37% 29.60 in 10.0 mi SSE 19.6 mph 27.6 mph N/A   Overcast
4:53 PM 64.9 °F 37.9 °F 37% 29.59 in 10.0 mi SSE 19.6 mph 28.8 mph N/A   Overcast
5:53 PM 64.0 °F 41.0 °F 43% 29.62 in 10.0 mi South 11.5 mph - 0.00 in Rain Light Rain
6:38 PM 60.8 °F 44.6 °F 55% 29.68 in 10.0 mi West 16.1 mph 20.7 mph 0.00 in Rain Light Rain
6:53 PM 59.0 °F 46.9 °F 64% 29.68 in 10.0 mi West 11.5 mph - 0.00 in Rain Light Rain
7:53 PM 54.0 °F 48.0 °F 80% 29.70 in 10.0 mi Calm Calm - 0.00 in Rain Light Rain
8:53 PM 54.0 °F 48.9 °F 83% 29.74 in 10.0 mi Calm Calm - 0.02 in Rain Light Rain
9:53 PM 52.0 °F 48.9 °F 89% 29.76 in 10.0 mi WSW 3.5 mph - 0.07 in Rain Light Rain
10:53 PM 51.1 °F 46.9 °F 86% 29.78 in 10.0 mi SSW 10.4 mph - 0.02 in Rain Light Rain
11:53 PM 52.0 °F 48.0 °F 86% 29.81 in 10.0 mi South 21.9 mph - 0.01 in Rain Light Rain